Location: Bocianicha
(51.5066°N, 19.2563°E)
Time: 14:21:39
(UTC+00:00)

USA 81 - Pass Details

Date: 15 June 2025
Orbit: 782 x 786 km, 85.0° (Epoch: 18 July)

Event Time Altitude Azimuth Distance (km) Brightness Sun altitude
Exits shadow 00:40:40 13° 191° (S) 2,126 5.7 -10.9°
Maximum altitude 00:45:23 79° 277° (W) 808 4.1 -10.5°
Drops below altitude 10° 00:50:41 10° 5° (N) 2,358 7.7 -10.1°
Sets 00:53:04 0° 6° (N) 3,291 8.7 -10.0°
